Date String (YYYY-MM-DD hh:mm:ss) UTC,Instrument flags,absolute air pressure of the measurement (hPa),sample flow rate (lpm),inlet stack bypass flow (lpm),air temperature of the measurement (°C),ambient temperature measured by the external sensor (°C),aerosol sample conditioner tube jacket temperature (°C),OPC LED temperature (°C),internal box temperature (°C),relative humidity of the measurement (%),span deviation,mass concentration of particles derived from Lorenz-Mie calculation of OPC scattering (μg/m³),mass concentration of particles derived from Lorenz-Mie calculation of OPC scattering (μg/m³),mass concentration of particles derived from Lorenz-Mie calculation of OPC scattering (μg/m³)
DateTimeUTC,F1_M11,P_M11,Q1_M11,Q2_M11,T1_M11,T2_M11,T3_M11,T4_M11,T5_M11,U1_M11,ZSPAN_M11,X0_M11,X2_M11,X1_M11
2023-07-11 12:00:00,SystemResetWarning,0830.7,5.00,000.00,029.6,028.4,000.0,038.1,031.2,17.0,0000.0,0009.52,0004.82,0003.95
2023-07-11 12:01:00,SystemResetWarning,0830.7,5.01,000.00,029.6,028.4,000.0,038.1,031.2,16.9,0000.0,0009.85,0004.84,0003.94
2023-07-11 12:02:00,SystemResetWarning,0830.7,5.01,000.00,029.7,028.4,000.0,038.1,031.3,16.8,0000.0,0010.51,0004.80,0003.93
2023-07-11 12:03:00,SystemResetWarning,0830.7,4.99,000.00,029.7,028.4,000.0,038.1,031.3,16.8,0000.0,0010.16,0004.74,0003.92
2023-07-11 12:04:00,SystemResetWarning,0830.7,4.99,000.00,029.7,028.5,000.0,038.1,031.3,16.8,0000.0,0010.03,0004.73,0003.92
2023-07-11 12:05:00,SystemResetWarning,0830.7,4.99,000.00,029.7,028.5,000.0,038.2,031.3,16.8,0000.0,0009.97,0004.75,0003.93
2023-07-11 12:06:00,SystemResetWarning,0830.7,5.00,000.00,029.8,028.5,000.0,038.2,031.3,16.6,0000.0,0009.84,0004.73,0003.93
2023-07-11 12:07:00,SystemResetWarning,0830.7,5.01,000.00,029.8,028.5,000.0,038.2,031.4,16.7,0000.0,0009.68,0004.69,0003.92
2023-07-11 12:08:00,SystemResetWarning,0830.7,5.00,000.00,029.8,028.6,000.0,038.2,031.4,16.7,0000.0,0010.34,0004.67,0003.92
2023-07-11 12:09:00,SystemResetWarning,0830.7,4.99,000.00,029.8,028.5,000.0,038.2,031.4,16.6,0000.0,0010.68,0004.66,0003.92
2023-07-11 12:10:00,SystemResetWarning,0830.7,4.99,000.00,029.8,027.0,000.0,038.1,031.3,16.6,0000.0,0010.70,0004.66,0003.91
2023-07-11 12:11:00,SystemResetWarning,0830.6,5.02,000.00,029.7,025.6,000.0,038.0,031.0,17.0,0000.0,0010.68,0004.62,0003.91
2023-07-11 12:12:00,SystemResetWarning,0830.6,5.01,000.00,029.6,025.6,000.0,038.0,030.8,17.2,0000.0,0010.62,0004.60,0003.90
2023-07-11 12:13:00,SystemResetWarning,0830.6,5.00,000.00,029.5,025.9,000.0,038.0,030.7,17.4,0000.0,0010.26,0004.60,0003.90
2023-07-11 12:14:00,SystemResetWarning,0830.6,5.00,000.00,029.5,026.3,000.0,038.0,030.7,17.6,0000.0,0010.04,0004.62,0003.90
2023-07-11 12:15:00,SystemResetWarning,0830.6,4.99,000.00,029.5,026.6,000.0,038.0,030.8,17.2,0000.0,0010.58,0004.61,0003.89
2023-07-11 12:16:00,SystemResetWarning,0830.6,4.98,000.00,029.4,026.9,000.0,038.0,030.9,17.4,0000.0,0010.81,0004.59,0003.90
2023-07-11 12:17:00,SystemResetWarning,0830.7,5.02,000.00,029.4,027.2,000.0,038.0,030.9,17.6,0000.0,0010.86,0004.59,0003.90
2023-07-11 12:18:00,SystemResetWarning,0830.7,4.98,000.00,029.5,027.4,000.0,038.0,031.0,17.3,0000.0,0010.91,0004.58,0003.90
2023-07-11 12:19:00,SystemResetWarning,0830.7,4.99,000.00,029.5,027.6,000.0,038.0,031.0,17.3,0000.0,0010.44,0004.58,0003.91
2023-07-11 12:20:00,SystemResetWarning,0830.7,5.02,000.00,029.5,027.8,000.0,038.0,031.0,17.4,0000.0,0009.93,0004.56,0003.91
2023-07-11 12:21:00,SystemResetWarning,0830.7,5.01,000.00,029.5,027.9,000.0,038.0,031.0,17.4,0000.0,0010.31,0004.55,0003.91
2023-07-11 12:22:00,SystemResetWarning,0830.7,4.98,000.00,029.5,028.0,000.0,038.0,031.1,17.2,0000.0,0010.74,0004.58,0003.90
2023-07-11 12:23:00,SystemResetWarning,0830.7,5.00,000.00,029.5,028.1,000.0,038.1,031.1,17.1,0000.0,0011.21,0004.58,0003.90
2023-07-11 12:24:00,SystemResetWarning,0830.7,5.01,000.00,029.6,028.2,000.0,038.1,031.2,17.4,0000.0,0010.74,0004.58,0003.91
2023-07-11 12:25:00,SystemResetWarning,0830.7,5.01,000.00,029.6,028.2,000.0,038.1,031.2,17.3,0000.0,0010.49,0004.53,0003.92
2023-07-11 12:26:00,SystemResetWarning,0830.7,4.99,000.00,029.6,028.3,000.0,038.1,031.2,17.4,0000.0,0010.12,0004.55,0003.93
2023-07-11 12:27:00,SystemResetWarning,0830.7,4.99,000.00,029.6,028.3,000.0,038.1,031.2,17.6,0000.0,0009.72,0004.59,0003.93
2023-07-11 12:28:00,SystemResetWarning,0830.7,4.99,000.00,029.7,028.4,000.0,038.1,031.3,17.3,0000.0,0009.80,0004.61,0003.94
2023-07-11 12:29:00,SystemResetWarning,0830.7,5.00,000.00,029.7,028.4,000.0,038.1,031.3,17.1,0000.0,0010.00,0004.62,0003.94
2023-07-11 12:30:00,SystemResetWarning,0830.7,5.01,000.00,029.7,028.5,000.0,038.2,031.3,16.8,0000.0,0010.54,0004.62,0003.93
2023-07-11 12:31:00,SystemResetWarning,0830.7,5.01,000.00,029.7,028.5,000.0,038.2,031.3,17.3,0000.0,0010.46,0004.64,0003.94
2023-07-11 12:32:00,SystemResetWarning,0830.7,5.00,000.00,029.7,028.6,000.0,038.2,031.3,17.2,0000.0,0010.07,0004.62,0003.94
2023-07-11 12:33:00,SystemResetWarning,0830.7,5.01,000.00,029.8,028.6,000.0,038.2,031.4,16.8,0000.0,0010.28,0004.56,0003.94
2023-07-11 12:34:00,SystemResetWarning,0830.7,5.00,000.00,029.8,028.6,000.0,038.2,031.4,17.0,0000.0,0010.22,0004.56,0003.95
2023-07-11 12:35:00,SystemResetWarning,0830.7,4.99,000.00,029.8,028.3,000.0,038.2,031.4,16.8,0000.0,0010.99,0004.58,0003.93
2023-07-11 12:36:00,SystemResetWarning,0830.7,5.00,000.00,029.8,026.7,000.0,038.1,031.1,17.0,0000.0,0011.55,0004.63,0003.92
2023-07-11 12:37:00,SystemResetWarning,0830.7,5.02,000.00,029.7,026.1,000.0,038.0,031.0,17.1,0000.0,0013.19,0004.62,0003.91
2023-07-11 12:38:00,SystemResetWarning,0830.7,5.00,000.00,029.6,026.2,000.0,038.0,030.9,17.2,0000.0,0013.12,0004.58,0003.90
2023-07-11 12:39:00,SystemResetWarning,0830.7,5.00,000.00,029.6,026.5,000.0,038.1,030.9,17.6,0000.0,0013.03,0004.56,0003.89
2023-07-11 12:40:00,SystemResetWarning,0830.7,5.00,000.00,029.5,026.9,000.0,038.1,030.9,17.9,0000.0,0012.85,0004.54,0003.88
2023-07-11 12:41:00,SystemResetWarning,0830.7,5.00,000.00,029.5,027.1,000.0,038.1,031.0,17.8,0000.0,0012.36,0004.54,0003.87
2023-07-11 12:42:00,SystemResetWarning,0830.7,4.99,000.00,029.5,027.4,000.0,038.1,031.0,17.7,0000.0,0012.62,0004.55,0003.85
2023-07-11 12:43:00,SystemResetWarning,0830.7,5.00,000.00,029.6,027.6,000.0,038.1,031.1,17.7,0000.0,0012.57,0004.55,0003.85
2023-07-11 12:44:00,SystemResetWarning,0830.8,4.99,000.00,029.6,027.8,000.0,038.1,031.1,17.5,0000.0,0012.05,0004.59,0003.86
2023-07-11 12:45:00,SystemResetWarning,0830.9,4.99,000.00,029.6,028.0,000.0,038.1,031.1,17.7,0000.0,0011.76,0004.59,0003.85
2023-07-11 12:46:00,SystemResetWarning,0830.8,5.01,000.00,029.6,028.1,000.0,038.1,031.2,18.1,0000.0,0011.49,0004.58,0003.84
2023-07-11 12:47:00,SystemResetWarning,0830.9,5.01,000.00,029.6,028.2,000.0,038.1,031.2,18.7,0000.0,0011.08,0004.53,0003.84
2023-07-11 12:48:00,SystemResetWarning,0830.9,5.00,000.00,029.7,028.3,000.0,038.2,031.3,20.2,0000.0,0009.49,0004.54,0003.85
2023-07-11 12:49:00,SystemResetWarning,0830.9,4.99,000.00,029.7,028.4,000.0,038.2,031.3,21.2,0000.0,0009.60,0004.55,0003.85
2023-07-11 12:50:00,SystemResetWarning,0830.9,5.00,000.00,029.7,028.5,000.0,038.2,031.4,20.0,0000.0,0009.81,0004.61,0003.85
2023-07-11 12:51:00,SystemResetWarning,0830.8,5.00,000.00,029.7,028.5,000.0,038.2,031.4,19.0,0000.0,0010.02,0004.66,0003.84
2023-07-11 12:52:00,SystemResetWarning,0830.8,5.00,000.00,029.8,028.6,000.0,038.2,031.4,18.5,0000.0,0009.88,0004.67,0003.84
2023-07-11 12:53:00,SystemResetWarning,0830.9,4.99,000.00,029.8,027.7,000.0,038.1,031.4,18.8,0000.0,0009.47,0004.63,0003.83
2023-07-11 12:54:00,SystemResetWarning,0830.9,5.00,000.00,029.7,025.8,000.0,038.0,031.1,19.0,0000.0,0009.53,0004.66,0003.84
2023-07-11 12:55:00,SystemResetWarning,0830.9,5.01,000.00,029.6,025.2,000.0,037.9,030.9,19.0,0000.0,0009.84,0004.67,0003.84
2023-07-11 12:56:00,SystemResetWarning,0830.9,5.01,000.00,029.5,025.5,000.0,037.9,030.7,18.8,0000.0,0011.10,0004.64,0003.84
2023-07-11 12:57:00,SystemResetWarning,0830.9,4.99,000.00,029.5,025.9,000.0,038.0,030.7,19.2,0000.0,0011.00,0004.64,0003.85
2023-07-11 12:58:00,SystemResetWarning,0830.9,5.00,000.00,029.4,026.3,000.0,038.0,030.8,20.7,0000.0,0011.04,0004.68,0003.87
2023-07-11 12:59:00,SystemResetWarning,0831.0,5.00,000.00,029.4,026.7,000.0,038.0,030.8,20.6,0000.0,0011.08,0004.68,0003.87
